Time,TemperatureF,DewpointF,PressureIn,WindDirection,WindDirectionDegrees,WindSpeedMPH,WindSpeedGustMPH,Humidity,HourlyPrecipIn,Conditions,Clouds,dailyrainin,SoftwareType,DateUTC
2013-05-27 00:01:00,75.3,61.1,30.42,SE,135,0.0,0.0,61,0.00,,,0.00,WUHU21623XXSP,2013-05-27 04:01:00,
2013-05-27 00:03:00,75.3,61.1,30.42,SE,135,0.0,0.0,61,0.00,,,0.00,WUHU21623XXSP,2013-05-27 04:03:00,
2013-05-27 00:08:00,74.9,61.2,30.42,ENE,67,0.0,0.0,62,0.00,,,0.00,WUHU21623XXSP,2013-05-27 04:08:00,
2013-05-27 00:13:00,74.9,61.2,30.43,ESE,112,0.0,0.0,62,0.00,,,0.00,WUHU21623XXSP,2013-05-27 04:13:00,
2013-05-27 00:18:00,74.9,61.7,30.42,SE,135,0.0,0.0,63,0.00,,,0.00,WUHU21623XXSP,2013-05-27 04:18:00,
2013-05-27 00:23:00,74.7,61.5,30.42,East,90,0.0,0.0,63,0.00,,,0.00,WUHU21623XXSP,2013-05-27 04:23:00,
2013-05-27 00:28:00,74.7,61.5,30.42,SE,135,0.0,0.0,63,0.00,,,0.00,WUHU21623XXSP,2013-05-27 04:28:00,
2013-05-27 00:33:00,74.6,61.4,30.43,ENE,67,0.0,0.0,63,0.00,,,0.00,WUHU21623XXSP,2013-05-27 04:33:00,
2013-05-27 00:38:00,74.6,61.4,30.43,SE,135,0.0,0.0,63,0.00,,,0.00,WUHU21623XXSP,2013-05-27 04:38:00,
2013-05-27 00:43:00,74.6,61.4,30.43,East,90,0.0,0.0,63,0.00,,,0.00,WUHU21623XXSP,2013-05-27 04:43:00,
2013-05-27 00:48:00,74.4,61.2,30.43,SE,135,0.0,0.0,63,0.00,,,0.00,WUHU21623XXSP,2013-05-27 04:48:00,
2013-05-27 00:53:00,74.4,61.2,30.43,ESE,112,0.0,0.0,63,0.00,,,0.00,WUHU21623XXSP,2013-05-27 04:53:00,
2013-05-27 00:58:00,74.2,61.5,30.43,ENE,67,0.0,0.0,64,0.00,,,0.00,WUHU21623XXSP,2013-05-27 04:58:00,
2013-05-27 01:03:00,74.0,61.7,30.43,ESE,112,0.0,0.0,65,0.00,,,0.00,WUHU21623XXSP,2013-05-27 05:03:00,
2013-05-27 01:08:00,74.0,61.7,30.43,ESE,112,0.0,0.0,65,0.00,,,0.00,WUHU21623XXSP,2013-05-27 05:08:00,
2013-05-27 01:13:00,74.0,61.7,30.44,ESE,112,0.0,0.0,65,0.00,,,0.00,WUHU21623XXSP,2013-05-27 05:13:00,
2013-05-27 01:18:00,73.8,61.5,30.44,ESE,112,0.0,0.0,65,0.00,,,0.00,WUHU21623XXSP,2013-05-27 05:18:00,
2013-05-27 01:23:00,73.8,61.9,30.43,SE,135,0.0,0.0,66,0.00,,,0.00,WUHU21623XXSP,2013-05-27 05:23:00,
2013-05-27 01:28:00,73.5,61.2,30.44,ESE,112,0.0,0.0,65,0.00,,,0.00,WUHU21623XXSP,2013-05-27 05:28:00,
2013-05-27 01:33:00,73.5,61.2,30.43,SE,135,0.0,0.0,65,0.00,,,0.00,WUHU21623XXSP,2013-05-27 05:33:00,
2013-05-27 01:38:00,73.3,61.5,30.43,SE,135,0.0,0.0,66,0.00,,,0.00,WUHU21623XXSP,2013-05-27 05:38:00,
2013-05-27 01:43:00,73.1,61.3,30.43,SE,135,0.0,0.0,66,0.00,,,0.00,WUHU21623XXSP,2013-05-27 05:43:00,
2013-05-27 01:48:00,73.1,61.3,30.43,SE,135,0.0,0.0,66,0.00,,,0.00,WUHU21623XXSP,2013-05-27 05:48:00,
2013-05-27 01:53:00,73.1,61.7,30.43,ESE,112,0.0,0.0,67,0.00,,,0.00,WUHU21623XXSP,2013-05-27 05:53:00,
2013-05-27 01:58:00,72.9,61.5,30.43,SE,135,0.0,0.0,67,0.00,,,0.00,WUHU21623XXSP,2013-05-27 05:58:00,
2013-05-27 02:03:00,72.9,61.5,30.42,ESE,112,0.0,0.0,67,0.00,,,0.00,WUHU21623XXSP,2013-05-27 06:03:00,
2013-05-27 02:08:00,72.9,61.5,30.42,ESE,112,0.0,0.0,67,0.00,,,0.00,WUHU21623XXSP,2013-05-27 06:08:00,
2013-05-27 02:13:00,72.9,61.5,30.42,East,90,0.0,0.0,67,0.00,,,0.00,WUHU21623XXSP,2013-05-27 06:13:00,
2013-05-27 02:18:00,72.8,61.4,30.41,ESE,112,0.0,0.0,67,0.00,,,0.00,WUHU21623XXSP,2013-05-27 06:18:00,
2013-05-27 02:24:00,72.8,61.8,30.41,ESE,112,0.0,0.0,68,0.00,,,0.00,WUHU21623XXSP,2013-05-27 06:24:00,
2013-05-27 02:29:00,72.6,61.6,30.41,East,90,0.0,0.0,68,0.00,,,0.00,WUHU21623XXSP,2013-05-27 06:29:00,
2013-05-27 02:34:00,72.6,62.0,30.41,NE,45,0.0,0.0,69,0.00,,,0.00,WUHU21623XXSP,2013-05-27 06:34:00,
2013-05-27 02:39:00,72.6,62.0,30.41,ESE,112,0.0,0.0,69,0.00,,,0.00,WUHU21623XXSP,2013-05-27 06:39:00,
2013-05-27 02:44:00,72.6,62.4,30.41,ESE,112,0.0,0.0,70,0.00,,,0.00,WUHU21623XXSP,2013-05-27 06:44:00,
2013-05-27 02:49:00,72.6,62.4,30.40,ESE,112,0.0,0.0,70,0.00,,,0.00,WUHU21623XXSP,2013-05-27 06:49:00,
2013-05-27 02:54:00,72.6,62.4,30.40,ESE,112,0.0,0.0,70,0.00,,,0.00,WUHU21623XXSP,2013-05-27 06:54:00,
2013-05-27 02:59:00,72.6,62.8,30.40,East,90,0.0,0.0,71,0.00,,,0.00,WUHU21623XXSP,2013-05-27 06:59:00,
2013-05-27 03:04:00,72.6,62.8,30.40,SE,135,0.0,0.0,71,0.00,,,0.00,WUHU21623XXSP,2013-05-27 07:04:00,
2013-05-27 03:09:00,72.6,62.8,30.40,ESE,112,0.0,0.0,71,0.00,,,0.00,WUHU21623XXSP,2013-05-27 07:09:00,
2013-05-27 03:14:00,72.4,63.0,30.40,East,90,0.0,0.0,72,0.00,,,0.00,WUHU21623XXSP,2013-05-27 07:14:00,
2013-05-27 03:19:00,72.4,63.0,30.39,ESE,112,0.0,0.0,72,0.00,,,0.00,WUHU21623XXSP,2013-05-27 07:19:00,
2013-05-27 03:24:00,72.4,63.0,30.40,East,90,0.0,0.0,72,0.00,,,0.00,WUHU21623XXSP,2013-05-27 07:24:00,
2013-05-27 03:29:00,72.2,63.2,30.39,ENE,67,0.0,0.0,73,0.00,,,0.00,WUHU21623XXSP,2013-05-27 07:29:00,
2013-05-27 03:34:00,72.2,62.8,30.39,SE,135,0.0,0.0,72,0.00,,,0.00,WUHU21623XXSP,2013-05-27 07:34:00,
2013-05-27 03:39:00,72.2,63.2,30.39,ENE,67,0.0,0.0,73,0.00,,,0.00,WUHU21623XXSP,2013-05-27 07:39:00,
2013-05-27 03:44:00,72.2,63.2,30.39,East,90,0.0,0.0,73,0.00,,,0.00,WUHU21623XXSP,2013-05-27 07:44:00,
2013-05-27 03:49:00,72.2,63.2,30.39,ESE,112,0.0,0.0,73,0.00,,,0.00,WUHU21623XXSP,2013-05-27 07:49:00,
2013-05-27 03:54:00,72.2,63.2,30.39,ENE,67,0.0,0.0,73,0.00,,,0.00,WUHU21623XXSP,2013-05-27 07:54:00,
2013-05-27 03:59:00,72.2,63.2,30.40,SE,135,0.0,0.0,73,0.00,,,0.00,WUHU21623XXSP,2013-05-27 07:59:00,
2013-05-27 04:04:00,72.0,63.4,30.40,ESE,112,0.0,0.0,74,0.00,,,0.00,WUHU21623XXSP,2013-05-27 08:04:00,
2013-05-27 04:09:00,72.0,63.4,30.40,ESE,112,0.0,0.0,74,0.00,,,0.00,WUHU21623XXSP,2013-05-27 08:09:00,
2013-05-27 04:14:00,72.0,63.4,30.40,NNE,22,0.0,0.0,74,0.00,,,0.00,WUHU21623XXSP,2013-05-27 08:14:00,
2013-05-27 04:19:00,71.7,62.7,30.40,NNE,22,0.0,0.0,73,0.00,,,0.00,WUHU21623XXSP,2013-05-27 08:19:00,
2013-05-27 04:24:00,71.3,62.4,30.39,NNE,22,0.0,0.0,73,0.00,,,0.00,WUHU21623XXSP,2013-05-27 08:24:00,
2013-05-27 04:29:00,71.1,62.2,30.39,NNE,22,0.0,0.0,73,0.00,,,0.00,WUHU21623XXSP,2013-05-27 08:29:00,
2013-05-27 04:34:00,70.8,61.9,30.39,NNE,22,0.0,0.0,73,0.00,,,0.00,WUHU21623XXSP,2013-05-27 08:34:00,
2013-05-27 04:39:00,70.4,61.5,30.40,NNE,22,0.0,0.0,73,0.00,,,0.00,WUHU21623XXSP,2013-05-27 08:39:00,
2013-05-27 04:44:00,70.2,61.7,30.40,NNE,22,0.0,0.0,74,0.00,,,0.00,WUHU21623XXSP,2013-05-27 08:44:00,
2013-05-27 04:49:00,69.9,61.4,30.40,NNE,22,0.0,0.0,74,0.00,,,0.00,WUHU21623XXSP,2013-05-27 08:49:00,
2013-05-27 04:54:00,69.7,61.2,30.40,NNE,22,0.0,0.0,74,0.00,,,0.00,WUHU21623XXSP,2013-05-27 08:54:00,
2013-05-27 04:59:00,69.5,61.4,30.39,NNE,22,0.0,0.0,75,0.00,,,0.00,WUHU21623XXSP,2013-05-27 08:59:00,
2013-05-27 05:05:00,69.3,61.2,30.39,NNE,22,0.0,0.0,75,0.00,,,0.00,WUHU21623XXSP,2013-05-27 09:05:00,
2013-05-27 05:10:00,69.2,61.1,30.40,NNE,22,0.0,0.0,75,0.00,,,0.00,WUHU21623XXSP,2013-05-27 09:10:00,
2013-05-27 05:15:00,69.0,60.9,30.39,NNE,22,0.0,0.0,75,0.00,,,0.00,WUHU21623XXSP,2013-05-27 09:15:00,
2013-05-27 05:20:00,69.0,61.2,30.40,NNE,22,0.0,0.0,76,0.00,,,0.00,WUHU21623XXSP,2013-05-27 09:20:00,
2013-05-27 05:25:00,69.0,61.2,30.40,NNE,22,0.0,0.0,76,0.00,,,0.00,WUHU21623XXSP,2013-05-27 09:25:00,
2013-05-27 05:30:00,69.0,61.6,30.40,ENE,67,0.0,0.0,77,0.00,,,0.00,WUHU21623XXSP,2013-05-27 09:30:00,
2013-05-27 05:35:00,69.0,61.6,30.39,NNE,22,0.0,0.0,77,0.00,,,0.00,WUHU21623XXSP,2013-05-27 09:35:00,
2013-05-27 05:40:00,69.0,62.0,30.39,NE,45,0.0,0.0,78,0.00,,,0.00,WUHU21623XXSP,2013-05-27 09:40:00,
2013-05-27 05:45:00,69.0,62.0,30.39,ENE,67,0.0,0.0,78,0.00,,,0.00,WUHU21623XXSP,2013-05-27 09:45:00,
2013-05-27 05:50:00,69.0,62.0,30.39,NE,45,0.0,0.0,78,0.00,,,0.00,WUHU21623XXSP,2013-05-27 09:50:00,
2013-05-27 05:55:00,69.0,62.3,30.39,NNE,22,0.0,0.0,79,0.00,,,0.00,WUHU21623XXSP,2013-05-27 09:55:00,
2013-05-27 06:00:00,69.0,62.3,30.39,NE,45,0.0,0.0,79,0.00,,,0.00,WUHU21623XXSP,2013-05-27 10:00:00,
2013-05-27 06:05:00,69.0,62.3,30.39,NE,45,0.0,0.0,79,0.00,,,0.00,WUHU21623XXSP,2013-05-27 10:05:00,
2013-05-27 06:10:00,68.8,62.1,30.39,NE,45,0.0,0.0,79,0.00,,,0.00,WUHU21623XXSP,2013-05-27 10:10:00,
2013-05-27 06:15:00,68.6,61.9,30.39,NE,45,0.0,0.0,79,0.00,,,0.00,WUHU21623XXSP,2013-05-27 10:15:00,
2013-05-27 06:20:00,68.6,61.9,30.39,ENE,67,0.0,0.0,79,0.00,,,0.00,WUHU21623XXSP,2013-05-27 10:20:00,
2013-05-27 06:25:00,68.4,61.7,30.39,ENE,67,0.0,0.0,79,0.00,,,0.00,WUHU21623XXSP,2013-05-27 10:25:00,
2013-05-27 06:30:00,68.4,61.7,30.39,ENE,67,0.0,0.0,79,0.00,,,0.00,WUHU21623XXSP,2013-05-27 10:30:00,
2013-05-27 06:35:00,68.3,62.0,30.39,ENE,67,0.0,0.0,80,0.00,,,0.00,WUHU21623XXSP,2013-05-27 10:35:00,
2013-05-27 06:40:00,68.3,62.0,30.39,ENE,67,0.0,0.0,80,0.00,,,0.00,WUHU21623XXSP,2013-05-27 10:40:00,
2013-05-27 06:45:00,68.3,62.0,30.39,ENE,67,0.0,0.0,80,0.00,,,0.00,WUHU21623XXSP,2013-05-27 10:45:00,
2013-05-27 06:50:00,68.4,62.1,30.39,NE,45,0.0,0.0,80,0.00,,,0.00,WUHU21623XXSP,2013-05-27 10:50:00,
2013-05-27 06:56:00,68.4,62.4,30.40,ENE,67,0.0,0.0,81,0.00,,,0.00,WUHU21623XXSP,2013-05-27 10:56:00,
2013-05-27 07:01:00,68.6,62.9,30.40,ENE,67,0.0,0.0,82,0.00,,,0.00,WUHU21623XXSP,2013-05-27 11:01:00,
2013-05-27 07:06:00,69.0,63.3,30.40,ENE,67,0.0,0.0,82,0.00,,,0.00,WUHU21623XXSP,2013-05-27 11:06:00,
2013-05-27 07:11:00,69.2,63.5,30.40,ESE,112,0.0,0.0,82,0.00,,,0.00,WUHU21623XXSP,2013-05-27 11:11:00,
2013-05-27 07:16:00,69.3,63.6,30.40,East,90,0.0,0.0,82,0.00,,,0.00,WUHU21623XXSP,2013-05-27 11:16:00,
2013-05-27 07:21:00,69.5,63.8,30.40,NE,45,0.0,0.0,82,0.00,,,0.00,WUHU21623XXSP,2013-05-27 11:21:00,
2013-05-27 07:26:00,69.9,64.2,30.40,ENE,67,0.0,0.0,82,0.00,,,0.00,WUHU21623XXSP,2013-05-27 11:26:00,
2013-05-27 07:31:00,70.4,64.4,30.40,ENE,67,0.0,0.0,81,0.00,,,0.00,WUHU21623XXSP,2013-05-27 11:31:00,
2013-05-27 07:36:00,70.8,64.8,30.40,ESE,112,0.0,0.0,81,0.00,,,0.00,WUHU21623XXSP,2013-05-27 11:36:00,
2013-05-27 07:41:00,71.9,65.5,30.40,ENE,67,0.0,0.0,80,0.00,,,0.00,WUHU21623XXSP,2013-05-27 11:41:00,
2013-05-27 07:46:00,73.1,66.3,30.40,East,90,0.0,0.0,79,0.00,,,0.00,WUHU21623XXSP,2013-05-27 11:46:00,
2013-05-27 07:51:00,74.0,66.1,30.40,ENE,67,0.0,0.0,76,0.00,,,0.00,WUHU21623XXSP,2013-05-27 11:51:00,
2013-05-27 07:56:00,75.3,67.0,30.40,ESE,112,0.0,0.0,75,0.00,,,0.00,WUHU21623XXSP,2013-05-27 11:56:00,
2013-05-27 08:01:00,76.4,67.7,30.40,SE,135,0.0,0.0,74,0.00,,,0.00,WUHU21623XXSP,2013-05-27 12:01:00,
2013-05-27 08:06:00,77.6,67.7,30.41,ESE,112,0.0,0.0,71,0.00,,,0.00,WUHU21623XXSP,2013-05-27 12:06:00,
2013-05-27 08:11:00,78.5,67.7,30.41,ESE,112,0.0,0.0,69,0.00,,,0.00,WUHU21623XXSP,2013-05-27 12:11:00,
2013-05-27 08:16:00,78.9,67.2,30.41,NE,45,0.0,0.0,67,0.00,,,0.00,WUHU21623XXSP,2013-05-27 12:16:00,
2013-05-27 08:21:00,78.9,67.2,30.41,ENE,67,0.0,0.0,67,0.00,,,0.00,WUHU21623XXSP,2013-05-27 12:21:00,
2013-05-27 08:26:00,78.9,66.8,30.41,ESE,112,0.0,0.0,66,0.00,,,0.00,WUHU21623XXSP,2013-05-27 12:26:00,
2013-05-27 08:31:00,78.7,66.6,30.42,ESE,112,0.0,0.0,66,0.00,,,0.00,WUHU21623XXSP,2013-05-27 12:31:00,
2013-05-27 08:36:00,78.5,66.4,30.41,ENE,67,0.0,0.0,66,0.00,,,0.00,WUHU21623XXSP,2013-05-27 12:36:00,
2013-05-27 08:41:00,78.3,66.2,30.41,ESE,112,0.0,0.0,66,0.00,,,0.00,WUHU21623XXSP,2013-05-27 12:41:00,
2013-05-27 08:46:00,78.3,66.2,30.41,ENE,67,0.0,0.0,66,0.00,,,0.00,WUHU21623XXSP,2013-05-27 12:46:00,
2013-05-27 08:51:00,78.3,66.2,30.42,ESE,112,0.0,0.0,66,0.00,,,0.00,WUHU21623XXSP,2013-05-27 12:51:00,
2013-05-27 08:56:00,78.3,66.2,30.42,ENE,67,0.0,0.0,66,0.00,,,0.00,WUHU21623XXSP,2013-05-27 12:56:00,
2013-05-27 09:01:00,78.7,66.2,30.41,ESE,112,0.0,0.0,65,0.00,,,0.00,WUHU21623XXSP,2013-05-27 13:01:00,
2013-05-27 09:06:00,78.9,65.9,30.41,ESE,112,0.0,0.0,64,0.00,,,0.00,WUHU21623XXSP,2013-05-27 13:06:00,
2013-05-27 09:11:00,79.2,66.2,30.41,ESE,112,0.0,0.0,64,0.00,,,0.00,WUHU21623XXSP,2013-05-27 13:11:00,
2013-05-27 09:16:00,79.4,65.9,30.42,SE,135,0.0,0.0,63,0.00,,,0.00,WUHU21623XXSP,2013-05-27 13:16:00,
2013-05-27 09:21:00,79.8,65.9,30.41,NE,45,0.0,0.0,62,0.00,,,0.00,WUHU21623XXSP,2013-05-27 13:21:00,
2013-05-27 09:26:00,80.3,66.3,30.41,SE,135,0.0,0.0,62,0.00,,,0.00,WUHU21623XXSP,2013-05-27 13:26:00,
2013-05-27 09:31:00,80.7,65.8,30.42,SE,135,0.0,0.0,60,0.00,,,0.00,WUHU21623XXSP,2013-05-27 13:31:00,
2013-05-27 09:36:00,80.7,65.3,30.42,NE,45,0.0,0.0,59,0.00,,,0.00,WUHU21623XXSP,2013-05-27 13:36:00,
2013-05-27 09:41:00,80.7,65.3,30.42,SE,135,0.0,0.0,59,0.00,,,0.00,WUHU21623XXSP,2013-05-27 13:41:00,
2013-05-27 09:46:00,80.9,65.0,30.42,ESE,112,0.0,0.0,58,0.00,,,0.00,WUHU21623XXSP,2013-05-27 13:46:00,
2013-05-27 09:51:00,80.7,64.3,30.42,ESE,112,0.0,0.0,57,0.00,,,0.00,WUHU21623XXSP,2013-05-27 13:51:00,
2013-05-27 09:56:00,80.7,64.3,30.42,ESE,112,0.0,0.0,57,0.00,,,0.00,WUHU21623XXSP,2013-05-27 13:56:00,
2013-05-27 10:01:00,80.7,64.3,30.42,East,90,0.0,0.0,57,0.00,,,0.00,WUHU21623XXSP,2013-05-27 14:01:00,
2013-05-27 10:07:00,81.0,64.0,30.42,ESE,112,0.0,0.0,56,0.00,,,0.00,WUHU21623XXSP,2013-05-27 14:07:00,
2013-05-27 10:12:00,81.2,64.2,30.42,ESE,112,0.0,0.0,56,0.00,,,0.00,WUHU21623XXSP,2013-05-27 14:12:00,
2013-05-27 10:17:00,82.1,65.1,30.42,SE,135,0.0,0.0,56,0.00,,,0.00,WUHU21623XXSP,2013-05-27 14:17:00,
2013-05-27 10:22:00,82.3,64.2,30.42,ESE,112,0.0,0.0,54,0.00,,,0.00,WUHU21623XXSP,2013-05-27 14:22:00,
2013-05-27 10:27:00,82.5,64.4,30.42,NNE,22,0.0,0.0,54,0.00,,,0.00,WUHU21623XXSP,2013-05-27 14:27:00,
2013-05-27 10:32:00,82.5,63.8,30.41,East,90,0.0,0.0,53,0.00,,,0.00,WUHU21623XXSP,2013-05-27 14:32:00,
2013-05-27 10:37:00,83.0,64.3,30.41,NE,45,0.0,0.0,53,0.00,,,0.00,WUHU21623XXSP,2013-05-27 14:37:00,
2013-05-27 10:42:00,83.7,64.4,30.42,ENE,67,0.0,0.0,52,0.00,,,0.00,WUHU21623XXSP,2013-05-27 14:42:00,
2013-05-27 10:47:00,83.9,64.0,30.42,East,90,0.0,0.0,51,0.00,,,0.00,WUHU21623XXSP,2013-05-27 14:47:00,
2013-05-27 10:52:00,84.3,63.8,30.42,SE,135,0.0,0.0,50,0.00,,,0.00,WUHU21623XXSP,2013-05-27 14:52:00,
2013-05-27 10:57:00,84.3,63.2,30.42,East,90,0.0,0.0,49,0.00,,,0.00,WUHU21623XXSP,2013-05-27 14:57:00,
2013-05-27 11:02:00,84.6,64.1,30.42,ENE,67,0.0,0.0,50,0.00,,,0.00,WUHU21623XXSP,2013-05-27 15:02:00,
2013-05-27 11:07:00,84.8,64.2,30.42,SE,135,0.0,0.0,50,0.00,,,0.00,WUHU21623XXSP,2013-05-27 15:07:00,
2013-05-27 11:12:00,85.5,63.7,30.41,ESE,112,0.0,0.0,48,0.00,,,0.00,WUHU21623XXSP,2013-05-27 15:12:00,
2013-05-27 11:17:00,85.9,63.4,30.42,SE,135,0.0,0.0,47,0.00,,,0.00,WUHU21623XXSP,2013-05-27 15:17:00,
2013-05-27 11:22:00,85.9,63.4,30.42,East,90,0.0,0.0,47,0.00,,,0.00,WUHU21623XXSP,2013-05-27 15:22:00,
2013-05-27 11:27:00,86.1,63.6,30.42,East,90,0.0,0.0,47,0.00,,,0.00,WUHU21623XXSP,2013-05-27 15:27:00,
2013-05-27 11:32:00,85.9,63.4,30.42,ENE,67,0.0,0.0,47,0.00,,,0.00,WUHU21623XXSP,2013-05-27 15:32:00,
2013-05-27 11:37:00,85.9,63.4,30.42,ESE,112,0.0,0.0,47,0.00,,,0.00,WUHU21623XXSP,2013-05-27 15:37:00,
2013-05-27 11:42:00,86.1,63.6,30.42,ESE,112,0.0,0.0,47,0.00,,,0.00,WUHU21623XXSP,2013-05-27 15:42:00,
2013-05-27 11:47:00,86.6,63.4,30.42,ESE,112,0.0,0.0,46,0.00,,,0.00,WUHU21623XXSP,2013-05-27 15:47:00,
2013-05-27 11:52:00,86.4,63.3,30.42,ESE,112,0.0,0.0,46,0.00,,,0.00,WUHU21623XXSP,2013-05-27 15:52:00,
2013-05-27 11:57:00,86.4,63.9,30.42,ESE,112,0.0,0.0,47,0.00,,,0.00,WUHU21623XXSP,2013-05-27 15:57:00,
2013-05-27 12:02:00,86.6,63.4,30.42,ESE,112,0.0,0.0,46,0.00,,,0.00,WUHU21623XXSP,2013-05-27 16:02:00,
2013-05-27 12:07:00,86.6,63.4,30.42,ENE,67,0.0,0.0,46,0.00,,,0.00,WUHU21623XXSP,2013-05-27 16:07:00,
2013-05-27 12:12:00,86.6,63.4,30.42,ESE,112,0.0,0.0,46,0.00,,,0.00,WUHU21623XXSP,2013-05-27 16:12:00,
2013-05-27 12:17:00,87.2,64.0,30.42,ESE,112,0.0,0.0,46,0.00,,,0.00,WUHU21623XXSP,2013-05-27 16:17:00,
2013-05-27 12:22:00,87.3,63.4,30.41,ESE,112,0.0,0.0,45,0.00,,,0.00,WUHU21623XXSP,2013-05-27 16:22:00,
2013-05-27 12:27:00,87.2,62.7,30.42,SE,135,0.0,0.0,44,0.00,,,0.00,WUHU21623XXSP,2013-05-27 16:27:00,
2013-05-27 12:32:00,87.5,63.6,30.42,ENE,67,0.0,0.0,45,0.00,,,0.00,WUHU21623XXSP,2013-05-27 16:32:00,
2013-05-27 12:37:00,88.2,64.2,30.42,ESE,112,0.0,0.0,45,0.00,,,0.00,WUHU21623XXSP,2013-05-27 16:37:00,
2013-05-27 12:42:00,89.0,64.3,30.42,NNE,22,0.0,0.0,44,0.00,,,0.00,WUHU21623XXSP,2013-05-27 16:42:00,
2013-05-27 12:47:00,88.8,63.5,30.41,SE,135,0.0,0.0,43,0.00,,,0.00,WUHU21623XXSP,2013-05-27 16:47:00,
2013-05-27 12:52:00,89.1,64.4,30.42,ESE,112,0.0,0.0,44,0.00,,,0.00,WUHU21623XXSP,2013-05-27 16:52:00,
2013-05-27 12:57:00,89.5,64.8,30.42,East,90,0.0,0.0,44,0.00,,,0.00,WUHU21623XXSP,2013-05-27 16:57:00,
2013-05-27 13:02:00,90.0,63.8,30.41,SE,135,0.0,0.0,42,0.00,,,0.00,WUHU21623XXSP,2013-05-27 17:02:00,
2013-05-27 13:07:00,90.2,64.0,30.41,SE,135,0.0,0.0,42,0.00,,,0.00,WUHU21623XXSP,2013-05-27 17:07:00,
2013-05-27 13:12:00,90.6,64.4,30.41,East,90,0.0,0.0,42,0.00,,,0.00,WUHU21623XXSP,2013-05-27 17:12:00,
2013-05-27 13:17:00,90.9,64.0,30.41,SSE,157,0.0,0.0,41,0.00,,,0.00,WUHU21623XXSP,2013-05-27 17:17:00,
2013-05-27 13:22:00,90.9,63.2,30.41,South,180,0.0,0.0,40,0.00,,,0.00,WUHU21623XXSP,2013-05-27 17:22:00,
2013-05-27 13:27:00,91.1,63.4,30.41,SE,135,0.0,0.0,40,0.00,,,0.00,WUHU21623XXSP,2013-05-27 17:27:00,
2013-05-27 13:32:00,91.3,63.6,30.41,SE,135,0.0,0.0,40,0.00,,,0.00,WUHU21623XXSP,2013-05-27 17:32:00,
2013-05-27 13:37:00,91.1,62.7,30.41,NE,45,0.0,0.0,39,0.00,,,0.00,WUHU21623XXSP,2013-05-27 17:37:00,
2013-05-27 13:42:00,90.8,63.1,30.41,SE,135,0.0,0.0,40,0.00,,,0.00,WUHU21623XXSP,2013-05-27 17:42:00,
2013-05-27 13:47:00,91.5,63.8,30.41,SE,135,0.0,0.0,40,0.00,,,0.00,WUHU21623XXSP,2013-05-27 17:47:00,
2013-05-27 13:52:00,92.0,63.5,30.40,SE,135,0.0,0.0,39,0.00,,,0.00,WUHU21623XXSP,2013-05-27 17:52:00,
2013-05-27 13:57:00,92.0,63.5,30.40,ENE,67,0.0,0.0,39,0.00,,,0.00,WUHU21623XXSP,2013-05-27 17:57:00,
2013-05-27 14:02:00,91.5,63.0,30.40,SSE,157,0.0,0.0,39,0.00,,,0.00,WUHU21623XXSP,2013-05-27 18:02:00,
2013-05-27 14:07:00,91.5,63.0,30.40,ESE,112,0.0,0.0,39,0.00,,,0.00,WUHU21623XXSP,2013-05-27 18:07:00,
2013-05-27 14:12:00,91.8,62.5,30.39,SE,135,0.0,0.0,38,0.00,,,0.00,WUHU21623XXSP,2013-05-27 18:12:00,
2013-05-27 14:18:00,91.8,62.5,30.40,ENE,67,0.0,0.0,38,0.00,,,0.00,WUHU21623XXSP,2013-05-27 18:18:00,
2013-05-27 14:23:00,91.5,63.0,30.39,ENE,67,0.0,0.0,39,0.00,,,0.00,WUHU21623XXSP,2013-05-27 18:23:00,
2013-05-27 14:28:00,91.5,63.0,30.39,SE,135,0.0,0.0,39,0.00,,,0.00,WUHU21623XXSP,2013-05-27 18:28:00,
2013-05-27 14:33:00,92.0,63.5,30.39,SE,135,0.0,0.0,39,0.00,,,0.00,WUHU21623XXSP,2013-05-27 18:33:00,
2013-05-27 14:38:00,92.7,63.3,30.39,SE,135,0.0,0.0,38,0.00,,,0.00,WUHU21623XXSP,2013-05-27 18:38:00,
2013-05-27 14:43:00,92.4,62.3,30.39,ESE,112,0.0,0.0,37,0.00,,,0.00,WUHU21623XXSP,2013-05-27 18:43:00,
2013-05-27 14:48:00,92.0,62.7,30.39,SE,135,0.0,0.0,38,0.00,,,0.00,WUHU21623XXSP,2013-05-27 18:48:00,
2013-05-27 14:53:00,92.0,62.7,30.38,ESE,112,0.0,0.0,38,0.00,,,0.00,WUHU21623XXSP,2013-05-27 18:53:00,
2013-05-27 14:58:00,92.0,62.7,30.38,ENE,67,0.0,0.0,38,0.00,,,0.00,WUHU21623XXSP,2013-05-27 18:58:00,
2013-05-27 15:03:00,91.8,62.5,30.37,SE,135,0.0,0.0,38,0.00,,,0.00,WUHU21623XXSP,2013-05-27 19:03:00,
2013-05-27 15:08:00,91.5,63.0,30.37,SE,135,0.0,0.0,39,0.00,,,0.00,WUHU21623XXSP,2013-05-27 19:08:00,
2013-05-27 15:13:00,92.0,62.7,30.37,East,90,0.0,0.0,38,0.00,,,0.00,WUHU21623XXSP,2013-05-27 19:13:00,
2013-05-27 15:18:00,92.0,61.2,30.37,NE,45,0.0,0.0,36,0.00,,,0.00,WUHU21623XXSP,2013-05-27 19:18:00,
2013-05-27 15:23:00,92.0,61.9,30.37,SE,135,0.0,0.0,37,0.00,,,0.00,WUHU21623XXSP,2013-05-27 19:23:00,
2013-05-27 15:28:00,92.0,62.7,30.37,SSE,157,0.0,0.0,38,0.00,,,0.00,WUHU21623XXSP,2013-05-27 19:28:00,
2013-05-27 15:33:00,92.0,61.2,30.36,SE,135,0.0,0.0,36,0.00,,,0.00,WUHU21623XXSP,2013-05-27 19:33:00,
2013-05-27 15:38:00,92.4,61.5,30.36,SE,135,0.0,0.0,36,0.00,,,0.00,WUHU21623XXSP,2013-05-27 19:38:00,
2013-05-27 15:43:00,92.6,62.5,30.36,SE,135,0.0,0.0,37,0.00,,,0.00,WUHU21623XXSP,2013-05-27 19:43:00,
2013-05-27 15:48:00,93.1,61.3,30.36,SSE,157,0.0,0.0,35,0.00,,,0.00,WUHU21623XXSP,2013-05-27 19:48:00,
2013-05-27 15:53:00,93.3,61.5,30.35,ESE,112,0.0,0.0,35,0.00,,,0.00,WUHU21623XXSP,2013-05-27 19:53:00,
2013-05-27 15:58:00,93.6,61.8,30.35,SE,135,0.0,0.0,35,0.00,,,0.00,WUHU21623XXSP,2013-05-27 19:58:00,
2013-05-27 16:03:00,93.1,60.5,30.35,ESE,112,0.0,0.0,34,0.00,,,0.00,WUHU21623XXSP,2013-05-27 20:03:00,
2013-05-27 16:08:00,93.1,61.3,30.35,ESE,112,0.0,0.0,35,0.00,,,0.00,WUHU21623XXSP,2013-05-27 20:08:00,
2013-05-27 16:13:00,93.3,61.5,30.34,ESE,112,0.0,0.0,35,0.00,,,0.00,WUHU21623XXSP,2013-05-27 20:13:00,
2013-05-27 16:18:00,93.3,61.5,30.34,SSE,157,0.0,0.0,35,0.00,,,0.00,WUHU21623XXSP,2013-05-27 20:18:00,
2013-05-27 16:23:00,94.5,62.6,30.34,SE,135,0.0,0.0,35,0.00,,,0.00,WUHU21623XXSP,2013-05-27 20:23:00,
2013-05-27 16:28:00,94.0,61.3,30.34,ESE,112,0.0,0.0,34,0.00,,,0.00,WUHU21623XXSP,2013-05-27 20:28:00,
2013-05-27 16:33:00,93.6,61.8,30.34,SSE,157,0.0,0.0,35,0.00,,,0.00,WUHU21623XXSP,2013-05-27 20:33:00,
2013-05-27 16:38:00,93.8,61.9,30.34,SSE,157,0.0,0.0,35,0.00,,,0.00,WUHU21623XXSP,2013-05-27 20:38:00,
2013-05-27 16:43:00,94.5,61.7,30.33,ESE,112,0.0,0.0,34,0.00,,,0.00,WUHU21623XXSP,2013-05-27 20:43:00,
2013-05-27 16:48:00,94.2,61.5,30.33,ENE,67,0.0,0.0,34,0.00,,,0.00,WUHU21623XXSP,2013-05-27 20:48:00,
2013-05-27 16:53:00,93.3,60.7,30.33,ESE,112,0.0,0.0,34,0.00,,,0.00,WUHU21623XXSP,2013-05-27 20:53:00,
2013-05-27 16:58:00,92.9,60.3,30.32,ESE,112,0.0,0.0,34,0.00,,,0.00,WUHU21623XXSP,2013-05-27 20:58:00,
2013-05-27 17:03:00,93.3,61.5,30.32,ESE,112,0.0,0.0,35,0.00,,,0.00,WUHU21623XXSP,2013-05-27 21:03:00,
2013-05-27 17:08:00,93.3,60.7,30.32,ENE,67,0.0,0.0,34,0.00,,,0.00,WUHU21623XXSP,2013-05-27 21:08:00,
2013-05-27 17:13:00,92.9,60.3,30.32,SE,135,0.0,0.0,34,0.00,,,0.00,WUHU21623XXSP,2013-05-27 21:13:00,
2013-05-27 17:18:00,92.7,61.0,30.32,ENE,67,0.0,0.0,35,0.00,,,0.00,WUHU21623XXSP,2013-05-27 21:18:00,
2013-05-27 17:23:00,92.4,60.7,30.32,ESE,112,0.0,0.0,35,0.00,,,0.00,WUHU21623XXSP,2013-05-27 21:23:00,
2013-05-27 17:29:00,92.0,60.4,30.32,SE,135,0.0,0.0,35,0.00,,,0.00,WUHU21623XXSP,2013-05-27 21:29:00,
2013-05-27 17:34:00,92.0,61.2,30.32,SSE,157,0.0,0.0,36,0.00,,,0.00,WUHU21623XXSP,2013-05-27 21:34:00,
2013-05-27 17:39:00,92.4,61.5,30.32,SE,135,0.0,0.0,36,0.00,,,0.00,WUHU21623XXSP,2013-05-27 21:39:00,
2013-05-27 17:44:00,92.7,62.6,30.32,ESE,112,0.0,0.0,37,0.00,,,0.00,WUHU21623XXSP,2013-05-27 21:44:00,
2013-05-27 17:49:00,92.6,60.9,30.32,East,90,0.0,0.0,35,0.00,,,0.00,WUHU21623XXSP,2013-05-27 21:49:00,
2013-05-27 17:54:00,92.0,61.2,30.32,ENE,67,0.0,0.0,36,0.00,,,0.00,WUHU21623XXSP,2013-05-27 21:54:00,
2013-05-27 17:59:00,91.8,62.5,30.32,ESE,112,0.0,0.0,38,0.00,,,0.00,WUHU21623XXSP,2013-05-27 21:59:00,
2013-05-27 18:04:00,91.3,62.1,30.32,ENE,67,0.0,0.0,38,0.00,,,0.00,WUHU21623XXSP,2013-05-27 22:04:00,
2013-05-27 18:09:00,90.8,61.6,30.32,East,90,0.0,0.0,38,0.00,,,0.00,WUHU21623XXSP,2013-05-27 22:09:00,
2013-05-27 18:14:00,90.6,61.5,30.31,ENE,67,0.0,0.0,38,0.00,,,0.00,WUHU21623XXSP,2013-05-27 22:14:00,
2013-05-27 18:19:00,90.6,61.5,30.31,ENE,67,0.0,0.0,38,0.00,,,0.00,WUHU21623XXSP,2013-05-27 22:19:00,
2013-05-27 18:24:00,90.6,62.2,30.31,SE,135,0.0,0.0,39,0.00,,,0.00,WUHU21623XXSP,2013-05-27 22:24:00,
2013-05-27 18:29:00,90.6,62.2,30.31,SE,135,0.0,0.0,39,0.00,,,0.00,WUHU21623XXSP,2013-05-27 22:29:00,
2013-05-27 18:34:00,91.1,62.7,30.31,ENE,67,0.0,0.0,39,0.00,,,0.00,WUHU21623XXSP,2013-05-27 22:34:00,
2013-05-27 18:39:00,91.3,62.1,30.31,ESE,112,0.0,0.0,38,0.00,,,0.00,WUHU21623XXSP,2013-05-27 22:39:00,
2013-05-27 18:44:00,91.5,62.3,30.30,East,90,0.0,0.0,38,0.00,,,0.00,WUHU21623XXSP,2013-05-27 22:44:00,
2013-05-27 18:49:00,92.0,62.7,30.30,NNE,22,0.0,0.0,38,0.00,,,0.00,WUHU21623XXSP,2013-05-27 22:49:00,
2013-05-27 18:54:00,91.5,62.3,30.30,NE,45,0.0,0.0,38,0.00,,,0.00,WUHU21623XXSP,2013-05-27 22:54:00,
2013-05-27 18:59:00,91.1,62.7,30.31,NE,45,0.0,0.0,39,0.00,,,0.00,WUHU21623XXSP,2013-05-27 22:59:00,
2013-05-27 19:04:00,91.1,63.4,30.30,ESE,112,0.0,0.0,40,0.00,,,0.00,WUHU21623XXSP,2013-05-27 23:04:00,
2013-05-27 19:09:00,90.9,63.2,30.30,ENE,67,0.0,0.0,40,0.00,,,0.00,WUHU21623XXSP,2013-05-27 23:09:00,
2013-05-27 19:14:00,90.6,63.0,30.30,ESE,112,0.0,0.0,40,0.00,,,0.00,WUHU21623XXSP,2013-05-27 23:14:00,
2013-05-27 19:19:00,89.7,63.6,30.30,ESE,112,0.0,0.0,42,0.00,,,0.00,WUHU21623XXSP,2013-05-27 23:19:00,
2013-05-27 19:24:00,88.6,62.6,30.31,NE,45,0.0,0.0,42,0.00,,,0.00,WUHU21623XXSP,2013-05-27 23:24:00,
2013-05-27 19:29:00,87.9,62.6,30.30,ENE,67,0.0,0.0,43,0.00,,,0.00,WUHU21623XXSP,2013-05-27 23:29:00,
2013-05-27 19:34:00,87.3,62.8,30.30,ESE,112,0.0,0.0,44,0.00,,,0.00,WUHU21623XXSP,2013-05-27 23:34:00,
2013-05-27 19:39:00,87.0,63.8,30.31,ESE,112,0.0,0.0,46,0.00,,,0.00,WUHU21623XXSP,2013-05-27 23:39:00,
2013-05-27 19:44:00,86.6,63.4,30.30,ENE,67,0.0,0.0,46,0.00,,,0.00,WUHU21623XXSP,2013-05-27 23:44:00,
2013-05-27 19:49:00,86.1,63.0,30.30,ESE,112,0.0,0.0,46,0.00,,,0.00,WUHU21623XXSP,2013-05-27 23:49:00,
2013-05-27 19:54:00,85.5,63.1,30.30,SE,135,0.0,0.0,47,0.00,,,0.00,WUHU21623XXSP,2013-05-27 23:54:00,
2013-05-27 19:59:00,85.0,62.6,30.30,ENE,67,0.0,0.0,47,0.00,,,0.00,WUHU21623XXSP,2013-05-27 23:59:00,
2013-05-27 20:04:00,84.8,62.4,30.30,East,90,0.0,0.0,47,0.00,,,0.00,WUHU21623XXSP,2013-05-28 00:04:00,
2013-05-27 20:09:00,84.3,63.2,30.30,ESE,112,0.0,0.0,49,0.00,,,0.00,WUHU21623XXSP,2013-05-28 00:09:00,
2013-05-27 20:14:00,84.1,63.0,30.31,ENE,67,0.0,0.0,49,0.00,,,0.00,WUHU21623XXSP,2013-05-28 00:14:00,
2013-05-27 20:19:00,83.9,63.4,30.31,ESE,112,0.0,0.0,50,0.00,,,0.00,WUHU21623XXSP,2013-05-28 00:19:00,
2013-05-27 20:24:00,83.6,63.1,30.31,ENE,67,0.0,0.0,50,0.00,,,0.00,WUHU21623XXSP,2013-05-28 00:24:00,
2013-05-27 20:29:00,83.4,63.5,30.31,ENE,67,0.0,0.0,51,0.00,,,0.00,WUHU21623XXSP,2013-05-28 00:29:00,
2013-05-27 20:34:00,83.0,63.2,30.31,East,90,0.0,0.0,51,0.00,,,0.00,WUHU21623XXSP,2013-05-28 00:34:00,
2013-05-27 20:39:00,83.0,63.2,30.32,ENE,67,0.0,0.0,51,0.00,,,0.00,WUHU21623XXSP,2013-05-28 00:39:00,
2013-05-27 20:44:00,82.8,63.0,30.32,ENE,67,0.0,0.0,51,0.00,,,0.00,WUHU21623XXSP,2013-05-28 00:44:00,
2013-05-27 20:49:00,82.7,63.4,30.31,ENE,67,0.0,0.0,52,0.00,,,0.00,WUHU21623XXSP,2013-05-28 00:49:00,
2013-05-27 20:55:00,82.5,63.8,30.32,ENE,67,0.0,0.0,53,0.00,,,0.00,WUHU21623XXSP,2013-05-28 00:55:00,
2013-05-27 21:00:00,82.3,63.6,30.32,ENE,67,0.0,0.0,53,0.00,,,0.00,WUHU21623XXSP,2013-05-28 01:00:00,
2013-05-27 21:05:00,82.1,63.4,30.32,ESE,112,0.0,0.0,53,0.00,,,0.00,WUHU21623XXSP,2013-05-28 01:05:00,
2013-05-27 21:10:00,81.9,63.3,30.32,SE,135,0.0,0.0,53,0.00,,,0.00,WUHU21623XXSP,2013-05-28 01:10:00,
2013-05-27 21:15:00,81.8,63.7,30.32,East,90,0.0,0.0,54,0.00,,,0.00,WUHU21623XXSP,2013-05-28 01:15:00,
2013-05-27 21:20:00,81.6,63.5,30.33,SE,135,0.0,0.0,54,0.00,,,0.00,WUHU21623XXSP,2013-05-28 01:20:00,
2013-05-27 21:25:00,81.2,63.7,30.34,ESE,112,0.0,0.0,55,0.00,,,0.00,WUHU21623XXSP,2013-05-28 01:25:00,
2013-05-27 21:30:00,81.0,63.0,30.34,ESE,112,0.0,0.0,54,0.00,,,0.00,WUHU21623XXSP,2013-05-28 01:30:00,
2013-05-27 21:35:00,81.0,63.5,30.34,SE,135,0.0,0.0,55,0.00,,,0.00,WUHU21623XXSP,2013-05-28 01:35:00,
2013-05-27 21:40:00,80.7,63.2,30.34,ESE,112,0.0,0.0,55,0.00,,,0.00,WUHU21623XXSP,2013-05-28 01:40:00,
2013-05-27 21:45:00,80.5,63.6,30.34,ENE,67,0.0,0.0,56,0.00,,,0.00,WUHU21623XXSP,2013-05-28 01:45:00,
2013-05-27 21:50:00,80.3,63.4,30.34,ENE,67,0.0,0.0,56,0.00,,,0.00,WUHU21623XXSP,2013-05-28 01:50:00,
2013-05-27 21:55:00,80.1,63.7,30.35,East,90,0.0,0.0,57,0.00,,,0.00,WUHU21623XXSP,2013-05-28 01:55:00,
2013-05-27 22:00:00,80.0,64.1,30.35,East,90,0.0,0.0,58,0.00,,,0.00,WUHU21623XXSP,2013-05-28 02:00:00,
2013-05-27 22:05:00,79.8,64.4,30.36,NE,45,0.0,0.0,59,0.00,,,0.00,WUHU21623XXSP,2013-05-28 02:05:00,
2013-05-27 22:10:00,79.4,64.0,30.36,ESE,112,0.0,0.0,59,0.00,,,0.00,WUHU21623XXSP,2013-05-28 02:10:00,
2013-05-27 22:15:00,79.4,64.0,30.36,ENE,67,0.0,0.0,59,0.00,,,0.00,WUHU21623XXSP,2013-05-28 02:15:00,
2013-05-27 22:20:00,79.2,64.3,30.36,East,90,0.0,0.0,60,0.00,,,0.00,WUHU21623XXSP,2013-05-28 02:20:00,
2013-05-27 22:25:00,78.9,64.5,30.36,SE,135,0.0,0.0,61,0.00,,,0.00,WUHU21623XXSP,2013-05-28 02:25:00,
2013-05-27 22:30:00,78.9,65.0,30.37,ESE,112,0.0,0.0,62,0.00,,,0.00,WUHU21623XXSP,2013-05-28 02:30:00,
2013-05-27 22:35:00,78.5,64.6,30.36,SE,135,0.0,0.0,62,0.00,,,0.00,WUHU21623XXSP,2013-05-28 02:35:00,
2013-05-27 22:40:00,78.5,65.1,30.36,SE,135,0.0,0.0,63,0.00,,,0.00,WUHU21623XXSP,2013-05-28 02:40:00,
2013-05-27 22:45:00,78.3,65.4,30.37,ESE,112,0.0,0.0,64,0.00,,,0.00,WUHU21623XXSP,2013-05-28 02:45:00,
2013-05-27 22:50:00,78.2,65.3,30.37,ENE,67,0.0,0.0,64,0.00,,,0.00,WUHU21623XXSP,2013-05-28 02:50:00,
2013-05-27 22:55:00,78.0,65.5,30.37,ESE,112,0.0,0.0,65,0.00,,,0.00,WUHU21623XXSP,2013-05-28 02:55:00,
2013-05-27 23:00:00,77.6,65.6,30.37,SE,135,0.0,0.0,66,0.00,,,0.00,WUHU21623XXSP,2013-05-28 03:00:00,
2013-05-27 23:05:00,77.6,66.0,30.37,East,90,0.0,0.0,67,0.00,,,0.00,WUHU21623XXSP,2013-05-28 03:05:00,
2013-05-27 23:10:00,77.4,65.8,30.37,ENE,67,0.0,0.0,67,0.00,,,0.00,WUHU21623XXSP,2013-05-28 03:10:00,
2013-05-27 23:15:00,77.1,65.9,30.37,SE,135,0.0,0.0,68,0.00,,,0.00,WUHU21623XXSP,2013-05-28 03:15:00,
2013-05-27 23:20:00,76.9,66.2,30.37,SE,135,0.0,0.0,69,0.00,,,0.00,WUHU21623XXSP,2013-05-28 03:20:00,
2013-05-27 23:25:00,76.7,66.0,30.38,SE,135,0.0,0.0,69,0.00,,,0.00,WUHU21623XXSP,2013-05-28 03:25:00,
2013-05-27 23:30:00,76.5,65.8,30.38,ESE,112,0.0,0.0,69,0.00,,,0.00,WUHU21623XXSP,2013-05-28 03:30:00,
2013-05-27 23:35:00,76.5,65.8,30.38,ESE,112,0.0,0.0,69,0.00,,,0.00,WUHU21623XXSP,2013-05-28 03:35:00,
2013-05-27 23:41:00,76.4,66.1,30.39,ESE,112,0.0,0.0,70,0.00,,,0.00,WUHU21623XXSP,2013-05-28 03:41:00,
2013-05-27 23:46:00,76.2,65.9,30.38,ESE,112,0.0,0.0,70,0.00,,,0.00,WUHU21623XXSP,2013-05-28 03:46:00,
2013-05-27 23:51:00,76.2,66.3,30.39,East,90,0.0,0.0,71,0.00,,,0.00,WUHU21623XXSP,2013-05-28 03:51:00,
2013-05-27 23:56:00,75.8,66.3,30.39,ESE,112,0.0,0.0,72,0.00,,,0.00,WUHU21623XXSP,2013-05-28 03:56:00,